Location: Belfast
(54.5830°N, 5.9330°W)
Time: 14:07:52
(UTC+01:00)

ISS - Pass Details

Date: 25 May 2017
Orbit: 402 x 408 km, 51.6° (Epoch: 26 May)

Event Time Altitude Azimuth Distance (km) Brightness Sun altitude
Rises 01:37:52 0° 264° (W) 2,332 -0.1 -14.4°
Reaches altitude 10° 01:39:59 10° 259° (W) 1,470 -1.2 -14.4°
Maximum altitude 01:43:11 50° 183° (S) 526 -3.7 -14.3°
Drops below altitude 10° 01:46:23 10° 107° (ESE) 1,466 -1.1 -14.3°
Sets 01:48:29 0° 102° (ESE) 2,324 0.0 -14.2°
